Flag for Faroe Islands Weather past 2 weeks in Tórshavn, Faroe Islands, Faroe Islands

Now
36 °F

Light snow. Overcast.


Feels Like: 21 °F
Forecast: 31 / 38 °F
Wind: 40 mph from Northwest

Location: Soervaag / Vagar

Current Time: Apr 1, 2015 at 6:16:12 PM

Latest Report: Apr 1, 2015 at 5:20 PM


Visibility: 2 mi

Pressure: 29.74 "Hg

Humidity: 93%

Dew point: 34 °F

Location of TórshavnLocation

Historic Weather in Tórshavn — Graph

°F

Tórshavn temperature yesterday

Maximum temperature yesterday: 39 °F (at 12:20 PM)
Minimum temperature yesterday: 32 °F (at 12:20 AM)
Average temperature yesterday: 35 °F

Past Weeks' High & Low Weather Summary

 TemperatureHumidityPressure
High46 °F (Mar 20, 1:20 PM)100% (Mar 17, 6:20 PM)30.45 "Hg (Mar 17, 6:20 PM)
Low30 °F (Mar 24, 6:20 AM)51% (Apr 1, 2:50 AM)28.85 "Hg (Mar 31, 3:50 AM)
Average39 °F83%29.66 "Hg
* Reported Mar 17 4:20 PM — Apr 1 5:20 PM, Tórshavn, Weather by CustomWeather, © 2015

Note: Actual official high and low records may vary slightly from our data, if they occured in-between our weather recording intervals... More about our weather records

Advertising

Tórshavn weather history for previous 24 hours

 ConditionsComfort  
Time TempWeatherWind HumidityBarometerVisibility
5:20 PM
Wed, Apr 1
36 °FLight snow. Overcast.40 mph93%29.74 "Hg2 mi
4:50 PM34 °FLight snow. Low clouds.37 mph87%29.71 "Hg1 mi
4:20 PM34 °FRain. Overcast.39 mph87%29.71 "Hg2 mi
3:50 PM34 °FSnow flurries. Partly sunny.31 mph81%29.71 "Hg2 mi
3:26 PM34 °FSnow flurries. Fog.25 mph75%29.71 "Hg2 mi
2:51 PM34 °FBroken clouds.24 mph65%29.71 "HgN/A
1:50 PM32 °FScattered showers. Scattered clouds.18 mph69%29.71 "HgN/A
12:50 PM32 °FScattered clouds.18 mph69%29.71 "HgN/A
11:50 AM32 °FScattered showers. Partly sunny.20 mph60%29.68 "HgN/A
10:50 AM32 °FPartly sunny.16 mph60%29.65 "HgN/A
10:21 AM30 °FSnow showers. Ice fog.21 mph69%29.65 "Hg2 mi
9:51 AM30 °FScattered showers. Partly sunny.18 mph80%29.65 "HgN/A
8:55 AM32 °FScattered clouds.18 mph55%29.62 "HgN/A
8:30 AM32 °FScattered clouds.16 mph60%29.62 "HgN/A
7:20 AM30 °FLight freezing rain. Passing clouds.15 mph75%29.62 "HgN/A
6:50 AM30 °FLight freezing rain. Partly cloudy.23 mph75%29.62 "HgN/A
6:20 AM30 °FLight snow. Passing clouds.14 mph75%29.62 "HgN/A
5:50 AM30 °FLight freezing rain. Passing clouds.21 mph80%29.62 "Hg3 mi
5:20 AM30 °FLight freezing rain. Passing clouds.16 mph64%29.59 "HgN/A
4:50 AM32 °FLight freezing rain. Passing clouds.17 mph55%29.59 "HgN/A
4:20 AM32 °FLight freezing rain. Passing clouds.17 mph51%29.59 "HgN/A
3:50 AM32 °FLight freezing rain. Passing clouds.14 mph60%29.59 "HgN/A
3:20 AM32 °FFreezing rain. Passing clouds.16 mph60%29.59 "HgN/A
2:50 AM32 °FLight freezing rain. Passing clouds.16 mph51%29.59 "HgN/A
2:20 AM32 °FLight freezing rain. Passing clouds.17 mph60%29.56 "HgN/A
1:50 AM32 °FPassing clouds.20 mph55%29.56 "HgN/A
1:20 AM32 °FPassing clouds.16 mph60%29.56 "HgN/A
12:50 AM32 °FPassing clouds.21 mph60%29.56 "HgN/A
12:20 AM32 °FSnow flurries. Passing clouds.18 mph64%29.56 "HgN/A
11:50 PM
Tue, Mar 31
32 °FSnow flurries. Passing clouds.20 mph64%29.53 "HgN/A
11:20 PM34 °FFreezing rain. Passing clouds.22 mph60%29.53 "HgN/A
10:50 PM34 °FLight freezing rain. Passing clouds.17 mph60%29.53 "HgN/A
10:20 PM32 °FLight freezing rain. Passing clouds.14 mph64%29.50 "HgN/A
9:50 PM32 °FLight freezing rain. Passing clouds.17 mph69%29.50 "HgN/A
9:20 PM34 °FLight freezing rain. Passing clouds.20 mph60%29.50 "HgN/A
8:50 PM32 °FLight freezing rain. Partly sunny.22 mph60%29.50 "HgN/A
8:20 PM32 °FLight freezing rain. Partly sunny.25 mph64%29.47 "HgN/A
7:50 PM32 °FLight freezing rain. Partly sunny.31 mph60%29.47 "HgN/A
7:20 PM32 °FLight freezing rain. Partly sunny.31 mph69%29.45 "HgN/A
6:50 PM32 °FLight freezing rain. Partly sunny.30 mph64%29.42 "HgN/A
6:20 PM32 °FLight freezing rain. Partly sunny.36 mph69%29.42 "HgN/A
Weather by CustomWeather, © 2015

See weather overviewHow to use our weather pages